SCP
0 0 0 0 0 0 0 0 0 0 0 0 0 0 0 0 0 0 0 0 0 0 0 0 0 0 0 0 0 0 0 0 0 0 0 0 0 0 0 0 0 0 0 0 0
0 0 0 0 0 0 0 0 0 0 0 0 0 0 0 0 0 0 0 0 0 0 0 0 0 0 0 0 0 0 0 0 0 0 0 0 0 0 0 0 0 0 0 0 0
0 0 0 0 0 0 0 0 0 0 0 0 0 0 0 0 0 0 0 0 0 0 0 0 0 0 0 0 0 0 0 0 0 0 0 0 0 0 0 0 0 0 0 0 0
0 0 0 0 0 0 0 0 0 0 0 0 0 0 0 0 0 0 0 0 0 0 0 0 0 0 0 0 0 0 0 0 0 0 0 0 0 0 0 0 0 0 0 0 0
0 0 0 0 0 0 0 0 0 0 0 0 0 0 0 0 0 0 0 0 0 0 0 0 0 0 0 0 0 0 0 0 0 0 0 0 0 0 0 0 0 0 0 0 0
0 0 0 0 0 0 0 0 0 0 0 0 0 0 0 0 0 0 0 0 0 0 0 0 0 0 0 0 0 0 0 0 0 0 0 0 0 0 0 0 0 0 0 0 0
0 0 0 0 0 0 0 0 0 0 0 0 0 0 0 0 0 0 0 0 0 0 0 0 0 0 0 0 0 0 0 0 0 0 0 0 0 0 0 0 0 0 0 0 0
0 0 0 0 0 0 0 0 0 0 0 0 0 0 0 0 0 0 0 0 0 0 0 0 0 0 0 0 0 0 0 0 0 0 0 0 0 0 0 0 0 0 0 0 0
0 0 0 0 0 0 0 0 0 0 0 0 0 0 0 0 0 0 0 0 0 0 0 0 0 0 0 0 0 0 0 0 0 0 0 0 0 0 0 0 0 0 0 0 0
0 0 0 0 0 0 0 0 0 0 0 0 0 0 0 0 0 0 0 0 0 0 0 0 0 0 0 0 0 0 0 0 0 0 0 0 0 0 0 0 0 0 0 0 0
0 0 0 0 0 0 0 0 0 0 0 0 0 0 0 0 0 0 0 0 0 0 0 0 0 0 0 0 0 0 0 0 0 0 0 0 0 0 0 0 0 0 0 0 0
0 0 0 0 0 0 0 0 0 0 0 0 0 0 0 0 0 0 0 0 0 0 0 0 0 0 0 0 0 0 0 0 0 0 0 0 0 0 0 0 0 0 0 0 0
0 0 0 0 0 0 0 0 0 0 0 0 0 0 0 0 0 0 0 0 0 0 0 0 0 0 0 0 0 0 0 0 0 0 0 0 0 0 0 0 0 0 0 0 0
0 -0 0 -0 0 0 0 0 0 0 0 0 0 0 0 0 0 0 0 0 0 0 0 0 0 0 0 0 0 0 0 0 0 0 0 0 0 0 0 0 0 0 0 0 0
0 0 0 -0 -0 0 0 0 0 0 0 0 0 0 0 0 0 0 0 0 0 0 0 0 0 0 0 0 0 0 0 0 0 0 0 0 0 0 0 0 0 0 0 0 0
0 0 0 0 0 0 0 0 0 0 0 0 0 0 0 0 0 0 0 0 0 0 0 0 0 0 0 0 0 0 0 0 0 0 0 0 0 0 0 0 0 0 0 0 0
0 0 0 0 0 0 0 0 0 0 0 0 0 0 0 0 0 0 0 0 0 0 0 0 0 0 0 0 0 0 0 0 0 0 0 0 0 0 0 0 0 0 0 0 0
0 -0 -0 0 0 0 0 0 0 0 0 0 0 0 0 0 0 0 0 0 0 0 0 0 0 0 0 0 0 0 0 0 0 0 0 0 0 0 0 0 0 0 0 0 0
-0 -0 -0 0 0 0 0 0 0 0 0 0 0 0 0 0 0 0 0 0 0 0 0 0 0 0 0 0 0 0 0 0 0 0 0 0 0 0 0 0 0 0 0 0 0
-0 -0 -0 0 0 0 0 0 0 0 0 -0 0 0 0 0 0 0 0 0 0 0 0 0 0 0 0 0 0 0 0 0 0 0 0 0 0 0 0 0 0 0 0 0 0
0 -0 -0 0 0 0 0 0 0 0 0 0 -0 -0 0 0 0 0 0 0 0 0 0 0 0 0 0 0 0 0 0 0 0 0 0 0 0 0 0 0 0 0 0 0 0
0 0 0 0 0 0 0 0 0 0 0 0 0 0 0 0 0 0 0 0 0 0 0 0 0 0 0 0 0 0 0 0 0 0 0 0 0 0 0 0 0 0 0 0 0
-0 0 0 0 0 0 0 0 0 0 0 0 0 0 0 0 0 0 0 0 0 0 0 0 0 0 0 0 0 0 0 0 0 0 0 0 0 0 0 0 0 0 0 0 0
-0 0 0 0 0 0 0 0 0 0 0 0 0 0 0 0 0 0 0 0 0 0 0 0 0 0 0 0 0 0 0 0 0 0 0 0 0 0 0 0 0 0 0 0 0
0 0 0 0 0 0 0 0 0 0 0 -0 0 0 0 0 0 0 0 0 0 0 0 0 0 0 0 0 0 0 0 0 0 0 0 0 0 0 0 0 0 0 0 0 0
-0 0 0 0 0 0 0 0 0 0 0 -0 0 0 0 0 0 0 0 0 0 0 0 0 0 0 0 0 0 0 0 0 0 0 0 0 0 0 0 0 0 0 0 0 0
-0 0 0 0 0 0 0 0 0 0 0 0 0 0 0 0 0 0 0 0 0 0 0 0 0 0 0 0 0 0 0 0 0 0 0 0 0 0 0 0 0 0 0 0 0
Wind_Speed_500mb
41 37 34 35 33 34 33 31 30 30 28 24 23 26 30 31 30 34 39 31 25 27 23 18 15 15 18 16 12 12 6 7 10 13 8 3 1 3 3 5 6 9 10 11 12
44 43 43 42 39 38 38 39 33 30 30 30 27 28 29 32 35 44 41 34 29 26 25 20 19 18 11 11 9 7 8 18 10 11 7 2 1 8 4 2 5 16 22 23 18
41 43 46 44 46 44 43 42 39 35 29 28 30 30 28 28 34 23 28 39 37 29 26 22 20 20 9 10 13 8 10 8 8 13 8 5 4 7 5 4 17 8 10 16 21
48 45 47 47 49 47 48 44 44 38 33 29 28 28 28 19 15 4 9 16 34 29 25 27 24 14 8 9 11 5 17 12 5 5 3 4 3 7 25 19 20 10 10 11 15
54 55 56 54 51 52 47 49 38 38 34 32 30 27 23 20 35 31 24 13 24 28 29 28 25 15 10 9 8 7 6 8 16 15 19 18 20 17 33 37 32 31 32 37 36
51 54 60 65 60 55 50 45 38 42 37 34 30 30 23 15 27 30 28 25 25 29 29 31 16 22 7 7 11 1 7 15 19 20 14 10 6 9 2 12 6 13 1 3 12
55 56 59 60 64 57 51 45 40 43 42 34 30 29 33 52 23 22 25 29 31 30 28 29 27 18 11 2 7 4 10 11 13 10 13 10 12 17 40 27 3 20 6 16 13
53 59 54 53 45 46 50 47 49 45 42 34 28 26 25 28 39 54 31 30 32 31 28 25 25 16 8 6 6 2 2 5 1 9 5 12 15 5 7 8 5 20 32 27 19
47 51 55 40 39 44 49 49 50 49 43 37 24 21 21 21 45 43 42 40 32 27 24 21 21 10 10 9 6 2 8 10 13 9 6 10 12 9 6 23 31 34 34 32 27
44 46 46 47 45 48 53 48 57 62 50 30 27 8 39 29 32 39 39 33 27 31 20 16 11 7 4 9 18 14 10 10 11 5 7 8 18 19 16 24 23 25 21 15 12
45 47 41 31 37 35 25 35 23 19 41 36 34 41 18 30 15 27 43 39 25 23 14 14 8 22 32 27 5 9 8 9 6 2 5 13 13 26 21 10 8 5 6 7 8
43 38 37 33 41 42 31 26 17 12 18 72 63 61 37 28 18 27 45 29 19 13 13 7 31 20 12 14 11 7 8 10 5 2 1 9 23 24 11 8 10 6 2 2 3
51 31 34 38 30 32 33 37 42 47 15 21 75 62 51 44 27 45 56 29 10 17 27 20 8 25 25 12 16 10 15 9 8 1 4 10 16 10 4 6 11 8 5 3 2
60 60 55 46 35 26 38 35 29 29 10 10 24 35 50 32 14 39 63 28 11 28 13 16 6 10 17 18 15 14 15 10 8 6 8 3 11 10 7 11 10 14 12 9 6
54 53 41 35 38 53 45 37 38 25 12 7 15 10 35 35 33 32 62 36 26 15 16 18 11 15 10 10 20 3 11 12 7 7 7 3 3 11 2 12 14 17 18 14 7
74 57 49 45 49 48 41 31 32 11 14 10 3 5 15 12 5 22 29 21 11 9 3 3 8 3 7 8 9 22 13 12 9 5 4 10 10 9 11 11 8 9 22 15 11
61 68 53 45 47 37 31 22 11 13 6 10 8 12 12 13 11 13 31 21 17 13 16 8 5 8 6 18 7 6 16 4 1 3 13 2 3 16 9 11 8 17 24 14 9
66 58 70 53 46 37 26 8 19 8 12 3 3 9 11 14 8 16 20 18 19 3 9 19 9 20 11 9 16 11 11 10 14 8 5 4 14 12 9 4 11 19 19 12 9
62 58 62 63 52 33 18 18 11 10 4 13 5 6 11 8 8 9 19 15 23 22 18 15 11 5 3 6 10 11 12 7 12 3 6 7 13 14 8 1 2 12 14 12 6
54 60 54 48 38 32 13 33 13 7 5 7 7 6 13 12 15 21 21 10 11 27 3 11 7 5 7 9 2 7 10 8 1 6 8 7 10 11 9 15 9 7 19 13 5
38 19 26 19 38 31 13 15 14 27 18 16 14 10 13 9 13 10 18 4 23 29 14 11 6 8 12 13 15 9 7 2 7 4 10 2 11 12 14 18 20 15 23 14 9
27 6 8 29 15 8 16 12 13 6 22 14 8 9 13 14 15 17 22 5 2 28 18 8 8 8 7 5 1 4 11 8 8 9 1 6 12 2 9 12 26 26 16 13 10
7 14 19 26 7 11 6 9 6 5 10 8 14 16 6 12 10 18 16 7 13 21 25 14 8 9 4 1 5 9 9 7 8 6 12 11 10 5 2 2 16 16 15 12 15
10 5 12 27 24 2 5 11 10 15 13 12 10 10 5 10 7 12 8 8 17 10 20 28 5 8 11 7 8 11 15 16 9 6 11 13 6 5 11 12 12 21 16 18 19
17 6 8 4 10 8 5 3 10 8 14 11 9 14 8 8 4 5 5 8 3 21 6 8 8 5 7 9 6 7 14 27 27 10 15 6 17 10 23 23 26 27 15 18 19
9 7 9 4 5 8 13 7 20 9 7 5 10 12 11 7 3 7 8 5 6 5 3 6 6 4 5 4 7 2 7 9 14 4 13 5 16 15 3 12 19 36 26 21 17
16 16 7 1 4 4 5 7 11 6 14 13 10 5 2 5 8 1 9 10 9 8 5 7 9 4 4 4 2 11 19 22 12 11 25 21 20 13 5 9 23 28 25 17 5
Wind_Direction_500mb
327 319 315 312 308 303 297 294 294 293 286 285 281 281 282 279 274 272 267 259 256 250 251 249 234 209 198 194 170 152 73 215 236 165 243 337 342 214 211 215 201 223 249 255 265
312 317 316 308 302 299 295 292 286 283 286 286 283 281 283 285 280 273 269 263 250 236 235 230 222 195 193 192 188 129 151 219 209 192 207 224 206 311 316 107 259 257 267 267 247
305 303 303 304 302 296 292 291 286 285 280 280 282 282 282 288 291 276 268 244 239 232 224 217 199 191 209 181 194 179 214 232 261 229 203 191 270 255 256 237 244 263 289 266 237
296 295 296 297 294 293 290 288 286 280 280 280 280 277 280 269 258 222 283 243 220 224 217 197 184 183 188 207 195 197 240 237 310 249 267 248 214 264 244 242 271 272 252 256 237
293 291 289 285 288 284 284 285 285 286 278 282 281 275 271 248 244 259 276 261 215 215 203 197 190 177 189 196 172 223 255 236 237 239 260 265 248 243 259 264 261 265 260 262 263
301 296 288 282 279 278 273 275 276 276 280 281 279 271 253 242 260 251 248 224 210 199 201 200 211 211 225 205 177 256 268 272 273 255 242 219 269 187 351 146 281 223 113 341 273
314 308 296 287 278 273 264 263 263 266 278 280 270 260 248 246 258 246 237 222 217 215 214 219 216 192 178 263 246 308 316 313 240 230 221 185 275 232 261 268 140 127 33 339 321
319 317 312 295 287 268 260 258 255 260 271 275 265 250 251 257 247 247 235 220 220 215 219 217 216 204 205 155 23 9 48 293 319 153 193 156 260 179 76 148 258 309 314 315 305
313 313 319 296 278 273 265 256 254 257 260 262 248 232 266 247 235 236 229 222 212 206 201 200 195 185 145 109 359 278 232 216 310 203 159 180 256 208 133 336 314 316 315 312 302
301 307 315 320 299 261 258 256 253 251 245 213 202 219 244 231 233 222 209 207 189 183 162 175 176 137 102 147 220 193 216 229 235 229 197 216 259 274 285 324 318 320 323 330 337
305 306 310 315 308 309 294 242 255 226 198 193 199 205 269 210 196 202 197 184 170 171 165 193 171 201 200 202 118 143 177 209 215 167 233 235 261 270 294 293 308 330 357 7 17
298 308 303 301 300 315 299 267 235 287 253 228 230 235 227 202 177 192 188 176 177 184 137 129 233 212 184 180 192 169 185 224 271 159 264 323 276 258 246 221 211 228 253 7 64
297 286 299 297 312 295 295 280 282 271 267 235 222 219 216 211 204 188 185 193 194 190 192 194 195 196 184 164 187 213 210 183 218 24 38 331 283 261 227 188 198 205 207 206 201
283 301 303 319 314 311 310 315 313 271 252 224 198 228 209 197 235 205 191 177 214 209 175 244 208 144 189 201 158 214 185 148 140 111 243 359 280 290 217 228 213 206 202 178 147
311 280 285 296 306 303 303 296 302 284 256 137 166 205 189 173 141 189 186 187 204 173 157 211 194 168 182 186 167 197 113 110 95 93 32 211 42 261 83 245 223 214 201 185 196
305 299 274 276 291 299 300 281 283 231 250 156 111 190 141 176 115 128 159 167 152 161 254 323 308 179 168 68 123 142 90 64 60 80 298 204 175 252 194 213 171 173 191 195 254
301 299 282 256 270 296 295 307 245 247 118 222 191 166 196 168 155 184 169 169 167 153 193 136 191 307 152 89 109 122 144 141 196 180 230 238 130 259 240 217 199 169 178 206 232
309 307 294 250 263 292 289 251 250 260 232 24 148 149 195 154 187 183 162 185 229 151 144 177 216 168 186 166 177 183 171 166 193 203 221 103 229 249 220 152 127 142 165 191 237
310 312 294 252 254 265 225 222 236 242 151 143 60 202 189 185 152 166 195 206 198 185 185 175 217 101 120 117 146 169 203 120 101 46 50 206 280 288 144 9 131 168 171 183 212
302 306 285 280 261 196 199 228 218 223 128 107 217 219 204 185 181 186 169 199 206 185 228 173 120 170 121 114 43 206 158 134 131 171 232 274 276 242 212 216 210 225 194 190 201
297 283 289 234 176 170 207 225 231 265 227 190 205 192 228 183 209 207 193 216 201 186 156 131 119 127 144 205 163 153 189 150 123 129 169 193 256 213 209 192 185 199 191 189 205
278 238 220 198 185 197 220 196 236 259 229 242 228 220 201 194 206 208 212 225 265 151 189 181 120 153 176 237 187 96 186 169 149 217 150 142 271 268 250 193 170 179 184 202 225
224 254 225 219 210 219 285 246 278 239 235 263 212 216 177 200 230 193 189 170 178 166 173 177 153 118 79 354 175 204 183 141 118 96 198 146 256 359 24 307 191 189 193 213 232
255 257 235 212 265 205 184 242 233 218 262 246 233 198 172 207 247 182 153 173 174 169 146 156 121 171 178 172 134 179 186 186 154 140 166 220 269 288 244 227 222 215 224 224 231
219 242 222 222 261 230 126 272 254 237 230 235 279 216 191 216 192 155 129 133 121 146 99 120 148 122 71 72 50 162 186 188 206 186 192 247 208 224 208 210 215 207 239 230 239
224 218 220 259 217 195 218 234 249 291 234 254 234 222 191 188 165 190 146 175 170 131 89 91 116 149 97 43 60 235 203 192 230 234 278 159 265 225 184 191 212 222 214 235 247
245 240 217 240 193 147 217 206 245 276 252 218 213 220 314 260 158 306 158 136 125 127 128 115 140 139 141 341 309 295 198 189 194 213 217 226 242 156 221 225 210 202 215 233 233
Wind_Speed_850mb
41 37 34 35 33 34 33 31 30 30 28 24 23 26 30 31 30 34 39 31 25 27 23 18 15 15 18 16 12 12 6 7 10 13 8 3 1 3 3 5 6 9 10 11 12
44 43 43 42 39 38 38 39 33 30 30 30 27 28 29 32 35 44 41 34 29 26 25 20 19 18 11 11 9 7 8 18 10 11 7 2 1 8 4 2 5 16 22 23 18
41 43 46 44 46 44 43 42 39 35 29 28 30 30 28 28 34 23 28 39 37 29 26 22 20 20 9 10 13 8 10 8 8 13 8 5 4 7 5 4 17 8 10 16 21
48 45 47 47 49 47 48 44 44 38 33 29 28 28 28 19 15 4 9 16 34 29 25 27 24 14 8 9 11 5 17 12 5 5 3 4 3 7 25 19 20 10 10 11 15
54 55 56 54 51 52 47 49 38 38 34 32 30 27 23 20 35 31 24 13 24 28 29 28 25 15 10 9 8 7 6 8 16 15 19 18 20 17 33 37 32 31 32 37 36
51 54 60 65 60 55 50 45 38 42 37 34 30 30 23 15 27 30 28 25 25 29 29 31 16 22 7 7 11 1 7 15 19 20 14 10 6 9 2 12 6 13 1 3 12
55 56 59 60 64 57 51 45 40 43 42 34 30 29 33 52 23 22 25 29 31 30 28 29 27 18 11 2 7 4 10 11 13 10 13 10 12 17 40 27 3 20 6 16 13
53 59 54 53 45 46 50 47 49 45 42 34 28 26 25 28 39 54 31 30 32 31 28 25 25 16 8 6 6 2 2 5 1 9 5 12 15 5 7 8 5 20 32 27 19
47 51 55 40 39 44 49 49 50 49 43 37 24 21 21 21 45 43 42 40 32 27 24 21 21 10 10 9 6 2 8 10 13 9 6 10 12 9 6 23 31 34 34 32 27
44 46 46 47 45 48 53 48 57 62 50 30 27 8 39 29 32 39 39 33 27 31 20 16 11 7 4 9 18 14 10 10 11 5 7 8 18 19 16 24 23 25 21 15 12
45 47 41 31 37 35 25 35 23 19 41 36 34 41 18 30 15 27 43 39 25 23 14 14 8 22 32 27 5 9 8 9 6 2 5 13 13 26 21 10 8 5 6 7 8
43 38 37 33 41 42 31 26 17 12 18 72 63 61 37 28 18 27 45 29 19 13 13 7 31 20 12 14 11 7 8 10 5 2 1 9 23 24 11 8 10 6 2 2 3
51 31 34 38 30 32 33 37 42 47 15 21 75 62 51 44 27 45 56 29 10 17 27 20 8 25 25 12 16 10 15 9 8 1 4 10 16 10 4 6 11 8 5 3 2
60 60 55 46 35 26 38 35 29 29 10 10 24 35 50 32 14 39 63 28 11 28 13 16 6 10 17 18 15 14 15 10 8 6 8 3 11 10 7 11 10 14 12 9 6
54 53 41 35 38 53 45 37 38 25 12 7 15 10 35 35 33 32 62 36 26 15 16 18 11 15 10 10 20 3 11 12 7 7 7 3 3 11 2 12 14 17 18 14 7
74 57 49 45 49 48 41 31 32 11 14 10 3 5 15 12 5 22 29 21 11 9 3 3 8 3 7 8 9 22 13 12 9 5 4 10 10 9 11 11 8 9 22 15 11
61 68 53 45 47 37 31 22 11 13 6 10 8 12 12 13 11 13 31 21 17 13 16 8 5 8 6 18 7 6 16 4 1 3 13 2 3 16 9 11 8 17 24 14 9
66 58 70 53 46 37 26 8 19 8 12 3 3 9 11 14 8 16 20 18 19 3 9 19 9 20 11 9 16 11 11 10 14 8 5 4 14 12 9 4 11 19 19 12 9
62 58 62 63 52 33 18 18 11 10 4 13 5 6 11 8 8 9 19 15 23 22 18 15 11 5 3 6 10 11 12 7 12 3 6 7 13 14 8 1 2 12 14 12 6
54 60 54 48 38 32 13 33 13 7 5 7 7 6 13 12 15 21 21 10 11 27 3 11 7 5 7 9 2 7 10 8 1 6 8 7 10 11 9 15 9 7 19 13 5
38 19 26 19 38 31 13 15 14 27 18 16 14 10 13 9 13 10 18 4 23 29 14 11 6 8 12 13 15 9 7 2 7 4 10 2 11 12 14 18 20 15 23 14 9
27 6 8 29 15 8 16 12 13 6 22 14 8 9 13 14 15 17 22 5 2 28 18 8 8 8 7 5 1 4 11 8 8 9 1 6 12 2 9 12 26 26 16 13 10
7 14 19 26 7 11 6 9 6 5 10 8 14 16 6 12 10 18 16 7 13 21 25 14 8 9 4 1 5 9 9 7 8 6 12 11 10 5 2 2 16 16 15 12 15
10 5 12 27 24 2 5 11 10 15 13 12 10 10 5 10 7 12 8 8 17 10 20 28 5 8 11 7 8 11 15 16 9 6 11 13 6 5 11 12 12 21 16 18 19
17 6 8 4 10 8 5 3 10 8 14 11 9 14 8 8 4 5 5 8 3 21 6 8 8 5 7 9 6 7 14 27 27 10 15 6 17 10 23 23 26 27 15 18 19
9 7 9 4 5 8 13 7 20 9 7 5 10 12 11 7 3 7 8 5 6 5 3 6 6 4 5 4 7 2 7 9 14 4 13 5 16 15 3 12 19 36 26 21 17
16 16 7 1 4 4 5 7 11 6 14 13 10 5 2 5 8 1 9 10 9 8 5 7 9 4 4 4 2 11 19 22 12 11 25 21 20 13 5 9 23 28 25 17 5
Wind_Direction_850mb
327 319 315 312 308 303 297 294 294 293 286 285 281 281 282 279 274 272 267 259 256 250 251 249 234 209 198 194 170 152 73 215 236 165 243 337 342 214 211 215 201 223 249 255 265
312 317 316 308 302 299 295 292 286 283 286 286 283 281 283 285 280 273 269 263 250 236 235 230 222 195 193 192 188 129 151 219 209 192 207 224 206 311 316 107 259 257 267 267 247
305 303 303 304 302 296 292 291 286 285 280 280 282 282 282 288 291 276 268 244 239 232 224 217 199 191 209 181 194 179 214 232 261 229 203 191 270 255 256 237 244 263 289 266 237
296 295 296 297 294 293 290 288 286 280 280 280 280 277 280 269 258 222 283 243 220 224 217 197 184 183 188 207 195 197 240 237 310 249 267 248 214 264 244 242 271 272 252 256 237
293 291 289 285 288 284 284 285 285 286 278 282 281 275 271 248 244 259 276 261 215 215 203 197 190 177 189 196 172 223 255 236 237 239 260 265 248 243 259 264 261 265 260 262 263
301 296 288 282 279 278 273 275 276 276 280 281 279 271 253 242 260 251 248 224 210 199 201 200 211 211 225 205 177 256 268 272 273 255 242 219 269 187 351 146 281 223 113 341 273
314 308 296 287 278 273 264 263 263 266 278 280 270 260 248 246 258 246 237 222 217 215 214 219 216 192 178 263 246 308 316 313 240 230 221 185 275 232 261 268 140 127 33 339 321
319 317 312 295 287 268 260 258 255 260 271 275 265 250 251 257 247 247 235 220 220 215 219 217 216 204 205 155 23 9 48 293 319 153 193 156 260 179 76 148 258 309 314 315 305
313 313 319 296 278 273 265 256 254 257 260 262 248 232 266 247 235 236 229 222 212 206 201 200 195 185 145 109 359 278 232 216 310 203 159 180 256 208 133 336 314 316 315 312 302
301 307 315 320 299 261 258 256 253 251 245 213 202 219 244 231 233 222 209 207 189 183 162 175 176 137 102 147 220 193 216 229 235 229 197 216 259 274 285 324 318 320 323 330 337
305 306 310 315 308 309 294 242 255 226 198 193 199 205 269 210 196 202 197 184 170 171 165 193 171 201 200 202 118 143 177 209 215 167 233 235 261 270 294 293 308 330 357 7 17
298 308 303 301 300 315 299 267 235 287 253 228 230 235 227 202 177 192 188 176 177 184 137 129 233 212 184 180 192 169 185 224 271 159 264 323 276 258 246 221 211 228 253 7 64
297 286 299 297 312 295 295 280 282 271 267 235 222 219 216 211 204 188 185 193 194 190 192 194 195 196 184 164 187 213 210 183 218 24 38 331 283 261 227 188 198 205 207 206 201
283 301 303 319 314 311 310 315 313 271 252 224 198 228 209 197 235 205 191 177 214 209 175 244 208 144 189 201 158 214 185 148 140 111 243 359 280 290 217 228 213 206 202 178 147
311 280 285 296 306 303 303 296 302 284 256 137 166 205 189 173 141 189 186 187 204 173 157 211 194 168 182 186 167 197 113 110 95 93 32 211 42 261 83 245 223 214 201 185 196
305 299 274 276 291 299 300 281 283 231 250 156 111 190 141 176 115 128 159 167 152 161 254 323 308 179 168 68 123 142 90 64 60 80 298 204 175 252 194 213 171 173 191 195 254
301 299 282 256 270 296 295 307 245 247 118 222 191 166 196 168 155 184 169 169 167 153 193 136 191 307 152 89 109 122 144 141 196 180 230 238 130 259 240 217 199 169 178 206 232
309 307 294 250 263 292 289 251 250 260 232 24 148 149 195 154 187 183 162 185 229 151 144 177 216 168 186 166 177 183 171 166 193 203 221 103 229 249 220 152 127 142 165 191 237
310 312 294 252 254 265 225 222 236 242 151 143 60 202 189 185 152 166 195 206 198 185 185 175 217 101 120 117 146 169 203 120 101 46 50 206 280 288 144 9 131 168 171 183 212
302 306 285 280 261 196 199 228 218 223 128 107 217 219 204 185 181 186 169 199 206 185 228 173 120 170 121 114 43 206 158 134 131 171 232 274 276 242 212 216 210 225 194 190 201
297 283 289 234 176 170 207 225 231 265 227 190 205 192 228 183 209 207 193 216 201 186 156 131 119 127 144 205 163 153 189 150 123 129 169 193 256 213 209 192 185 199 191 189 205
278 238 220 198 185 197 220 196 236 259 229 242 228 220 201 194 206 208 212 225 265 151 189 181 120 153 176 237 187 96 186 169 149 217 150 142 271 268 250 193 170 179 184 202 225
224 254 225 219 210 219 285 246 278 239 235 263 212 216 177 200 230 193 189 170 178 166 173 177 153 118 79 354 175 204 183 141 118 96 198 146 256 359 24 307 191 189 193 213 232
255 257 235 212 265 205 184 242 233 218 262 246 233 198 172 207 247 182 153 173 174 169 146 156 121 171 178 172 134 179 186 186 154 140 166 220 269 288 244 227 222 215 224 224 231
219 242 222 222 261 230 126 272 254 237 230 235 279 216 191 216 192 155 129 133 121 146 99 120 148 122 71 72 50 162 186 188 206 186 192 247 208 224 208 210 215 207 239 230 239
224 218 220 259 217 195 218 234 249 291 234 254 234 222 191 188 165 190 146 175 170 131 89 91 116 149 97 43 60 235 203 192 230 234 278 159 265 225 184 191 212 222 214 235 247
245 240 217 240 193 147 217 206 245 276 252 218 213 220 314 260 158 306 158 136 125 127 128 115 140 139 141 341 309 295 198 189 194 213 217 226 242 156 221 225 210 202 215 233 233